User: anonymous   Login
Location: Gollag?dem
(16.8053°N, 80.8024°E)
Time: 20:24:56
(UTC+00:00)
Language:

Cosmos 2297 - Orbit

View from above orbital plane
View from above orbital plane
View from above satellite
View from above satellite

Ground track
Ground track

The orbit data is extracted from the following two-line orbital elements,

1 23404U 94077A   20304.26817430 +.00000034 +00000-0 +43146-4 0  9999
2 23404 071.0144 235.8470 0013457 076.0636 284.1981 14.13541449337999
Epoch (UTC): 30 October 2020 06:26:10
Eccentricity: 0.0013457
inclination: 71.0144°
perigee height: 837 km
apogee height: 857 km
right ascension of ascending node: 235.8470°
argument of perigee: 76.0636°
revolutions per day: 14.13541449
mean anomaly at epoch: 284.1981°
orbit number at epoch: 33799

The dashed part of the orbit path shows where the satellite is in the earth's shadow,  

DLR